This demonstration page uses our WeatherBlox Daily Observations layout. Learn more.

Left ArrowRight Arrow

39.01783, -85.05884

Hourly Observations for May 22, 2019

Temp ( °F °C ) Dew Point ( °F °C ) Humidity (%) Winds ( mph kmh ) Pressure ( in mb ) Visibility ( mi km ) Precip ( " mm )
12:52 am 00:52 Mostly Clear 60 15.6 48 8.9 65 65 ESE 14 22 29.96 1015 10 16 0.00 0.00
1:52 am 01:52 Clear 59 15 48 8.9 67 67 ESE 10 17 29.96 1015 10 16 0.00 0.00
2:52 am 02:52 Mostly Clear 60 15.6 48 8.9 65 65 ESE 12 19 29.96 1015 10 16 0.00 0.00
3:52 am 03:52 Mostly Cloudy 60 15.6 48 8.9 65 65 E 10 17 29.94 1014 10 16 0.00 0.00
4:52 am 04:52 Cloudy 60 15.6 49 9.4 67 67 ESE 9 15 29.96 1014 10 16 0.00 0.00
5:52 am 05:52 Mostly Cloudy 60 15.6 50 10 70 70 SE 10 17 29.93 1013 10 16 0.00 0.00
6:52 am 06:52 Cloudy 61 16.1 51 10.6 70 70 SSE 12 19 29.94 1014 10 16 0.00 0.00
7:52 am 07:52 Mostly Cloudy 62 16.7 53 11.7 73 73 SSE 10 17 29.96 1015 10 16 0.00 0.00
8:52 am 08:52 Mostly Cloudy 67 19.4 56 13.3 68 68 SSE 14 22 29.96 1014 10 16 0.00 0.00
9:52 am 09:52 Mostly Cloudy 76 24.4 61 16.1 60 60 S 12 19 29.95 1014 10 16 0.00 0.00
10:52 am 10:52 Cloudy 77 25 63 17.2 62 62 S 13 20 29.96 1015 10 16 0.00 0.00
11:52 am 11:52 Mostly Cloudy 80 26.7 65 18.3 60 60 SW 13 20 29.97 1015 10 16 0.00 0.00
12:52 pm 12:52 Cloudy 81 27.2 64 17.8 57 57 SSW 13 20 29.99 1016 10 16 0.00 0.00
1:52 pm 13:52 Cloudy 80 26.7 65 18.3 60 60 SW 12 19 29.98 1015 10 16 0.00 0.00
2:52 pm 14:52 Cloudy 79 26.1 66 18.9 65 65 NW 10 17 30.00 1016 10 16 0.00 0.00
3:52 pm 15:52 Cloudy 76 24.4 65 18.3 69 69 NW 7 11 30.00 1016 10 16 0.00 0.00
4:52 pm 16:52 Cloudy 74 23.3 68 20 82 82 W 9 15 30.00 1016 10 16 0.06 1.52
5:52 pm 17:52 Cloudy 74 23.3 69 20.6 85 85 W 7 11 30.00 1016 10 16 0.00 0.00
6:52 pm 18:52 Cloudy 74 23.3 69 20.6 85 85 N 5 7 30.01 1016 8 13 0.00 0.03
7:52 pm 19:52 Cloudy 74 23.3 68 20 82 82 Calm 30.01 1016 9 14 0.00 0.00
8:52 pm 20:52 Mostly Cloudy 71 21.7 68 20 90 90 SSE 5 7 30.02 1017 7 11 0.00 0.03
9:52 pm 21:52 Mostly Cloudy 72 22.2 68 20 87 87 WSW 3 6 30.04 1017 9 14 0.00 0.00
10:52 pm 22:52 Clear 68 20 67 19.4 96 96 SSE 6 9 30.04 1017 8 13 0.00 0.00
11:52 pm 23:52 Clear 69 20.6 67 19.4 93 93 S 6 9 30.02 1017 10 16 0.00 0.00

Powered by AerisWeather